[[{"header":{"parameterUnit":"m.s-1","parameterCategory":1,"la1":30.2992,"la2":30.254,"lo1":-89.0895,"lo2":-89.0443,"dy":0.0025,"dx":0.0025,"nx":19,"ny":19,"refTime":"2026-03-21T21:00:00:Z","depth":0,"parameterNumber":2,"parameterNumberName":"U-component_of_WINDS"},"data":[0,0,0,1.7907,1.791,1.8038,1.8038,1.8196,1.8197,0,0,0,0,0,0,0,0,0,0,0,1.7861,1.7862,1.7907,1.791,1.8038,1.8038,1.8196,1.8197,0,0,0,0,0,0,0,0,0,0,0,1.7861,1.7862,1.7863,1.791,1.8037,1.8038,1.8195,1.8102,0,0,0,0,0,0,0,0,0,0,1.7979,1.7928,1.7862,1.7863,1.7911,1.8037,1.8038,1.8098,1.8108,1.8134,0,1.8151,0,1.8176,1.8207,1.8208,0,0,0,1.7917,1.7919,1.7961,1.7863,1.7912,1.8037,1.7982,1.8104,1.8115,1.8148,1.8154,1.816,1.8179,1.8208,1.8209,1.8327,1.8327,0,0,1.791,1.7881,1.7953,1.7968,1.7942,1.7978,1.7986,1.8111,1.8117,1.8154,1.8164,1.8182,1.8209,1.821,1.8327,1.8327,0,0,0,1.7885,1.7875,1.7914,1.7961,1.7984,1.7981,1.7991,1.8111,1.8126,1.8165,1.8183,1.821,1.8212,1.8327,1.8327,1.8308,0,0,0,1.7881,1.7861,1.7911,1.7894,1.7981,1.8048,1.7988,1.8118,1.8133,1.8183,1.821,1.8213,1.8327,1.8327,1.8308,1.8304,0,0,0,1.7856,1.7858,1.7873,1.7892,1.7946,1.8047,1.8069,1.8122,1.8143,1.8208,1.8213,1.8326,1.8327,1.8308,1.8304,1.8327,0,0,0,1.7821,1.7855,1.7872,1.7919,1.7944,1.8033,1.8069,1.8137,1.819,1.8211,1.8327,1.8327,1.8308,1.8304,1.8326,1.834,1.8342,0,0,1.7848,1.7858,1.7887,1.7906,1.7983,1.8016,1.8093,1.8171,1.8206,1.8286,1.8289,1.8308,1.8304,1.8327,1.8368,1.8369,0,0,0,1.7886,1.7907,1.7934,1.7981,1.804,1.8091,1.816,1.8189,1.8258,1.8239,1.8323,1.8322,1.8337,1.8344,1.8346,1.8361,1.8329,1.8329,1.8329,1.7882,1.7923,1.7975,1.8032,1.8079,1.815,1.8192,1.8245,1.8274,1.8294,1.8317,1.8337,1.8345,1.8346,1.8361,1.8328,1.8328,1.8328,1.8328,1.7926,1.7962,1.8,1.8064,1.8109,1.8165,1.8237,1.8256,1.8318,1.8322,1.8337,1.8337,1.8347,1.8362,1.8327,1.8327,1.8327,1.8327,1.8328,1.7927,1.7951,1.7985,1.8059,1.8113,1.8172,1.8229,1.8269,1.8307,1.8322,1.8352,1.8353,1.8359,1.8334,1.8334,1.8334,1.8334,1.8334,1.8334,1.7914,1.7953,1.7994,1.806,1.8097,1.8152,1.8226,1.8265,1.8319,1.8344,1.8344,1.8373,1.8339,1.833,1.8335,1.8335,1.8335,1.8335,1.8335,1.7942,1.7943,1.8005,1.8042,1.8125,1.8177,1.8228,1.8304,1.8343,1.837,1.8397,1.8365,1.8379,1.8378,1.8371,1.8386,1.8386,1.8386,1.8386,1.7943,1.7953,1.8028,1.8084,1.8145,1.8198,1.8272,1.8332,1.8395,1.8422,1.8426,1.842,1.8417,1.8433,1.8431,1.8425,1.8454,1.8454,1.8454,1.7963,1.7981,1.8034,1.8092,1.8161,1.8221,1.8293,1.836,1.8432,1.8458,1.8445,1.8442,1.8433,1.8427,1.8451,1.8447,1.8436,0,0]},{"header":{"parameterUnit":"m.s-1","parameterCategory":1,"la1":30.2992,"la2":30.254,"lo1":-89.0895,"lo2":-89.0443,"dy":0.0025,"dx":0.0025,"nx":19,"ny":19,"refTime":"2026-03-21T21:00:00:Z","depth":0,"parameterNumber":3,"parameterNumberName":"V-component_of_WINDS"},"data":[0,0,0,2.9934,2.9935,2.9975,2.9975,3.0012,3.0012,0,0,0,0,0,0,0,0,0,0,0,2.9916,2.9916,2.9934,2.9935,2.9975,2.9975,3.0012,3.0012,0,0,0,0,0,0,0,0,0,0,0,2.9916,2.9916,2.9916,2.9935,2.9975,2.9975,3.0012,2.9986,0,0,0,0,0,0,0,0,0,0,2.995,2.9927,2.9916,2.9916,2.9935,2.9975,2.9975,2.9985,2.9988,2.9988,0,2.9989,0,3.0001,3.0014,3.0014,0,0,0,2.9939,2.9925,2.9942,2.9916,2.9936,2.9975,2.9958,2.9987,2.999,2.9992,2.999,2.9991,3.0002,3.0014,3.0014,3.0006,3.0006,0,0,2.9937,2.9919,2.994,2.9943,2.9939,2.9957,2.9959,2.9989,2.9985,2.999,2.9992,3.0002,3.0014,3.0014,3.0006,3.0006,0,0,0,2.9928,2.9918,2.9934,2.9942,2.995,2.9958,2.9961,2.9983,2.999,2.9993,3.0003,3.0014,3.0014,3.0007,3.0006,2.9977,0,0,0,2.9927,2.9912,2.9933,2.9922,2.9949,2.9968,2.9954,2.9988,2.9992,3.0003,3.0014,3.0015,3.0007,3.0006,2.9978,2.9965,0,0,0,2.9916,2.9911,2.9915,2.9921,2.9938,2.9968,2.9976,2.9989,2.9998,3.0014,3.0015,3.0007,3.0007,2.9979,2.9967,2.9956,0,0,0,2.9898,2.9889,2.9914,2.9907,2.9938,2.995,2.9976,2.9986,2.9997,3.0014,3.0007,3.0006,2.998,2.9969,2.9958,2.9943,2.9936,0,0,2.9876,2.9885,2.9883,2.9907,2.991,2.9945,2.9944,2.9969,2.9987,2.9998,2.9998,2.9978,2.9968,2.9957,2.9905,2.9899,0,0,0,2.9869,2.9867,2.9872,2.9881,2.9901,2.9916,2.9944,2.9953,2.9964,2.999,2.9972,2.9967,2.9961,2.9955,2.995,2.9945,3.0003,3.0003,3.0003,2.9812,2.9835,2.9831,2.9858,2.9866,2.9895,2.9903,2.992,2.9941,2.9936,2.9939,2.9905,2.9897,2.9893,2.9888,2.9934,2.9934,2.9934,2.9934,2.978,2.9779,2.9806,2.9812,2.9835,2.9839,2.9865,2.9879,2.9885,2.9905,2.9901,2.9919,2.9886,2.9882,2.9932,2.9932,2.9933,2.9933,2.9933,2.9744,2.9747,2.9759,2.9774,2.9782,2.9809,2.9813,2.9835,2.9854,2.9851,2.9855,2.9855,2.9856,2.9851,2.9851,2.9851,2.9851,2.9851,2.9851,2.9701,2.9715,2.9717,2.9736,2.9744,2.9756,2.9783,2.9791,2.9804,2.9819,2.9819,2.9838,2.988,2.9888,2.9849,2.9849,2.985,2.985,2.985,2.9657,2.967,2.9672,2.968,2.9703,2.9708,2.9735,2.9748,2.9758,2.9758,2.9778,2.9806,2.9816,2.982,2.9827,2.9775,2.9775,2.9775,2.9775,2.9625,2.9633,2.9638,2.9649,2.9661,2.9686,2.9684,2.9704,2.9727,2.9733,2.9744,2.9756,2.9759,2.9768,2.9773,2.978,2.9716,2.9716,2.9716,2.9598,2.9608,2.9603,2.9627,2.9646,2.9661,2.9659,2.9668,2.9696,2.9714,2.9738,2.974,2.976,2.9766,2.9783,2.979,2.9804,0,0]}]]